![]() |
EMODnet Physics ERDDAP
Easier access to scientific data |
log in|
Brought to you by EMODnet Physics |
| Dataset Title: | NDBC - Collection of dew point temperature (DEWT) TimeSeries - IN SITU MultiPointTimeSeriesObservation
|
| Institution: | NDBC (Dataset ID: TS_DEWT_NDBC) |
| Information: | Summary
| License
| FGDC
| ISO 19115
| Metadata
| Background
| Subset
| Data Access Form
| Make a graph
|
| Name | Last modified | Size | Description | |
|---|---|---|---|---|
| Parent Directory | - | - | ||
| 46047_TS_DEWT_011992.nc | 26-Oct-2024 23:44 | 450732 | ||
| 46047_TS_DEWT_011993.nc | 26-Oct-2024 23:44 | 448780 | ||
| 46047_TS_DEWT_012000.nc | 26-Oct-2024 23:44 | 451358 | ||
| 46047_TS_DEWT_012001.nc | 26-Oct-2024 23:44 | 451175 | ||
| 46047_TS_DEWT_012002.nc | 26-Oct-2024 23:44 | 431817 | ||
| 46047_TS_DEWT_012003.nc | 26-Oct-2024 23:44 | 450589 | ||
| 46047_TS_DEWT_012004.nc | 26-Oct-2024 23:44 | 450317 | ||
| 46047_TS_DEWT_012005.nc | 26-Oct-2024 23:44 | 450224 | ||
| 46047_TS_DEWT_012006.nc | 26-Oct-2024 23:44 | 450362 | ||
| 46047_TS_DEWT_012007.nc | 26-Oct-2024 23:44 | 449647 | ||
| 46047_TS_DEWT_012008.nc | 26-Oct-2024 23:44 | 440374 | ||
| 46047_TS_DEWT_012009.nc | 26-Oct-2024 23:44 | 1106639 | ||
| 46047_TS_DEWT_012010.nc | 26-Oct-2024 23:44 | 1264098 | ||
| 46047_TS_DEWT_012012.nc | 26-Oct-2024 23:44 | 450041 | ||
| 46047_TS_DEWT_012013.nc | 26-Oct-2024 23:44 | 449533 | ||
| 46047_TS_DEWT_012015.nc | 26-Oct-2024 23:44 | 449828 | ||
| 46047_TS_DEWT_012016.nc | 26-Oct-2024 23:44 | 448875 | ||
| 46047_TS_DEWT_012017.nc | 26-Oct-2024 23:44 | 450087 | ||
| 46047_TS_DEWT_012018.nc | 26-Oct-2024 23:44 | 448689 | ||
| 46047_TS_DEWT_012019.nc | 26-Oct-2024 23:44 | 448778 | ||
| 46047_TS_DEWT_012020.nc | 26-Oct-2024 23:44 | 436227 | ||
| 46047_TS_DEWT_012021.nc | 26-Oct-2024 23:44 | 438846 | ||
| 46047_TS_DEWT_012022.nc | 26-Oct-2024 23:44 | 450549 | ||
| 46047_TS_DEWT_012023.nc | 26-Oct-2024 23:44 | 449538 | ||
| 46047_TS_DEWT_012024.nc | 26-Oct-2024 23:44 | 449219 | ||
| 46047_TS_DEWT_012025.nc | 07-Feb-2025 12:18 | 448679 | ||
| 46047_TS_DEWT_012026.nc | 02-Feb-2026 19:52 | 437890 | ||
| 46047_TS_DEWT_021992.nc | 26-Oct-2024 23:45 | 437941 | ||
| 46047_TS_DEWT_021993.nc | 26-Oct-2024 23:45 | 1095779 | ||
| 46047_TS_DEWT_022000.nc | 26-Oct-2024 23:45 | 1112491 | ||
| 46047_TS_DEWT_022001.nc | 26-Oct-2024 23:45 | 450034 | ||
| 46047_TS_DEWT_022002.nc | 26-Oct-2024 23:45 | 450189 | ||
| 46047_TS_DEWT_022003.nc | 26-Oct-2024 23:45 | 450575 | ||
| 46047_TS_DEWT_022004.nc | 26-Oct-2024 23:45 | 451602 | ||
| 46047_TS_DEWT_022005.nc | 26-Oct-2024 23:45 | 450331 | ||
| 46047_TS_DEWT_022006.nc | 26-Oct-2024 23:45 | 449780 | ||
| 46047_TS_DEWT_022007.nc | 26-Oct-2024 23:45 | 442569 | ||
| 46047_TS_DEWT_022008.nc | 26-Oct-2024 23:45 | 451208 | ||
| 46047_TS_DEWT_022009.nc | 26-Oct-2024 23:45 | 426257 | ||
| 46047_TS_DEWT_022010.nc | 26-Oct-2024 23:45 | 451641 | ||
| 46047_TS_DEWT_022012.nc | 26-Oct-2024 23:45 | 450513 | ||
| 46047_TS_DEWT_022013.nc | 26-Oct-2024 23:45 | 450067 | ||
| 46047_TS_DEWT_022015.nc | 26-Oct-2024 23:45 | 449867 | ||
| 46047_TS_DEWT_022016.nc | 26-Oct-2024 23:45 | 450049 | ||
| 46047_TS_DEWT_022017.nc | 26-Oct-2024 23:45 | 431422 | ||
| 46047_TS_DEWT_022018.nc | 26-Oct-2024 23:45 | 1265585 | ||
| 46047_TS_DEWT_022019.nc | 26-Oct-2024 23:45 | 1264361 | ||
| 46047_TS_DEWT_022020.nc | 26-Oct-2024 23:45 | 449906 | ||
| 46047_TS_DEWT_022021.nc | 26-Oct-2024 23:45 | 449592 | ||
| 46047_TS_DEWT_022022.nc | 26-Oct-2024 23:45 | 448260 | ||
| 46047_TS_DEWT_022023.nc | 26-Oct-2024 23:45 | 449837 | ||
| 46047_TS_DEWT_022024.nc | 16-Sep-2024 16:51 | 449649 | ||
| 46047_TS_DEWT_022025.nc | 01-Mar-2025 08:49 | 450097 | ||
| 46047_TS_DEWT_022026.nc | 01-Mar-2026 11:28 | 450824 | ||
| 46047_TS_DEWT_031992.nc | 26-Oct-2024 23:46 | 449012 | ||
| 46047_TS_DEWT_031993.nc | 26-Oct-2024 23:46 | 450495 | ||
| 46047_TS_DEWT_032000.nc | 26-Oct-2024 23:46 | 450111 | ||
| 46047_TS_DEWT_032001.nc | 26-Oct-2024 23:46 | 449667 | ||
| 46047_TS_DEWT_032002.nc | 26-Oct-2024 23:46 | 442573 | ||
| 46047_TS_DEWT_032003.nc | 26-Oct-2024 23:46 | 450223 | ||
| 46047_TS_DEWT_032004.nc | 26-Oct-2024 23:46 | 450340 | ||
| 46047_TS_DEWT_032005.nc | 26-Oct-2024 23:46 | 1115229 | ||
| 46047_TS_DEWT_032006.nc | 26-Oct-2024 23:46 | 1115860 | ||
| 46047_TS_DEWT_032007.nc | 26-Oct-2024 23:46 | 445647 | ||
| 46047_TS_DEWT_032008.nc | 26-Oct-2024 23:46 | 451283 | ||
| 46047_TS_DEWT_032009.nc | 26-Oct-2024 23:46 | 450697 | ||
| 46047_TS_DEWT_032010.nc | 26-Oct-2024 23:46 | 451091 | ||
| 46047_TS_DEWT_032011.nc | 26-Oct-2024 23:46 | 450926 | ||
| 46047_TS_DEWT_032012.nc | 26-Oct-2024 23:46 | 452098 | ||
| 46047_TS_DEWT_032013.nc | 26-Oct-2024 23:46 | 452010 | ||
| 46047_TS_DEWT_032015.nc | 26-Oct-2024 23:46 | 450738 | ||
| 46047_TS_DEWT_032016.nc | 26-Oct-2024 23:46 | 449997 | ||
| 46047_TS_DEWT_032017.nc | 26-Oct-2024 23:46 | 451468 | ||
| 46047_TS_DEWT_032018.nc | 26-Oct-2024 23:46 | 449975 | ||
| 46047_TS_DEWT_032019.nc | 26-Oct-2024 23:46 | 451578 | ||
| 46047_TS_DEWT_032020.nc | 26-Oct-2024 23:47 | 449841 | ||
| 46047_TS_DEWT_032021.nc | 26-Oct-2024 23:47 | 429904 | ||
| 46047_TS_DEWT_032022.nc | 26-Oct-2024 23:47 | 1216838 | ||
| 46047_TS_DEWT_032023.nc | 26-Oct-2024 23:47 | 1268910 | ||
| 46047_TS_DEWT_032025.nc | 17-Apr-2025 07:03 | 431344 | ||
| 46047_TS_DEWT_032026.nc | 21-Mar-2026 13:34 | 450669 | ||
| 46047_TS_DEWT_041993.nc | 26-Oct-2024 23:47 | 450902 | ||
| 46047_TS_DEWT_042000.nc | 26-Oct-2024 23:47 | 446999 | ||
| 46047_TS_DEWT_042001.nc | 26-Oct-2024 23:47 | 451909 | ||
| 46047_TS_DEWT_042002.nc | 26-Oct-2024 23:47 | 447334 | ||
| 46047_TS_DEWT_042003.nc | 26-Oct-2024 23:47 | 438604 | ||
| 46047_TS_DEWT_042004.nc | 26-Oct-2024 23:47 | 443758 | ||
| 46047_TS_DEWT_042005.nc | 26-Oct-2024 23:47 | 450688 | ||
| 46047_TS_DEWT_042006.nc | 26-Oct-2024 23:47 | 450376 | ||
| 46047_TS_DEWT_042007.nc | 26-Oct-2024 23:47 | 450940 | ||
| 46047_TS_DEWT_042008.nc | 26-Oct-2024 23:47 | 450739 | ||
| 46047_TS_DEWT_042009.nc | 26-Oct-2024 23:47 | 1264710 | ||
| 46047_TS_DEWT_042010.nc | 26-Oct-2024 23:47 | 446427 | ||
| 46047_TS_DEWT_042011.nc | 26-Oct-2024 23:47 | 447487 | ||
| 46047_TS_DEWT_042012.nc | 26-Oct-2024 23:47 | 446885 | ||
| 46047_TS_DEWT_042013.nc | 26-Oct-2024 23:48 | 436454 | ||
| 46047_TS_DEWT_042015.nc | 26-Oct-2024 23:48 | 448652 | ||
| 46047_TS_DEWT_042016.nc | 26-Oct-2024 23:48 | 447152 | ||
| 46047_TS_DEWT_042017.nc | 26-Oct-2024 23:48 | 443225 | ||
| 46047_TS_DEWT_042018.nc | 26-Oct-2024 23:48 | 449907 | ||
| 46047_TS_DEWT_042019.nc | 26-Oct-2024 23:48 | 449505 | ||
| 46047_TS_DEWT_042020.nc | 26-Oct-2024 23:48 | 448143 | ||
| 46047_TS_DEWT_042021.nc | 26-Oct-2024 23:48 | 935416 | ||
| 46047_TS_DEWT_042022.nc | 26-Oct-2024 23:48 | 451075 | ||
| 46047_TS_DEWT_042023.nc | 26-Oct-2024 23:48 | 450628 | ||
| 46047_TS_DEWT_051993.nc | 26-Oct-2024 23:48 | 451535 | ||
| 46047_TS_DEWT_051999.nc | 26-Oct-2024 23:48 | 419338 | ||
| 46047_TS_DEWT_052000.nc | 26-Oct-2024 23:48 | 450409 | ||
| 46047_TS_DEWT_052001.nc | 26-Oct-2024 23:48 | 450581 | ||
| 46047_TS_DEWT_052002.nc | 26-Oct-2024 23:48 | 434659 | ||
| 46047_TS_DEWT_052003.nc | 26-Oct-2024 23:48 | 450411 | ||
| 46047_TS_DEWT_052004.nc | 26-Oct-2024 23:48 | 449613 | ||
| 46047_TS_DEWT_052005.nc | 26-Oct-2024 23:48 | 451249 | ||
| 46047_TS_DEWT_052006.nc | 26-Oct-2024 23:48 | 441753 | ||
| 46047_TS_DEWT_052007.nc | 26-Oct-2024 23:48 | 450267 | ||
| 46047_TS_DEWT_052008.nc | 26-Oct-2024 23:49 | 450022 | ||
| 46047_TS_DEWT_052009.nc | 26-Oct-2024 23:49 | 451229 | ||
| 46047_TS_DEWT_052010.nc | 26-Oct-2024 23:49 | 430966 | ||
| 46047_TS_DEWT_052011.nc | 26-Oct-2024 23:49 | 438262 | ||
| 46047_TS_DEWT_052012.nc | 26-Oct-2024 23:49 | 440713 | ||
| 46047_TS_DEWT_052013.nc | 26-Oct-2024 23:49 | 449559 | ||
| 46047_TS_DEWT_052014.nc | 26-Oct-2024 23:49 | 443603 | ||
| 46047_TS_DEWT_052015.nc | 26-Oct-2024 23:49 | 449806 | ||
| 46047_TS_DEWT_052016.nc | 26-Oct-2024 23:49 | 449440 | ||
| 46047_TS_DEWT_052017.nc | 26-Oct-2024 23:49 | 430892 | ||
| 46047_TS_DEWT_052018.nc | 26-Oct-2024 23:49 | 447292 | ||
| 46047_TS_DEWT_052019.nc | 26-Oct-2024 23:49 | 451455 | ||
| 46047_TS_DEWT_052020.nc | 26-Oct-2024 23:49 | 450286 | ||
| 46047_TS_DEWT_052021.nc | 26-Oct-2024 23:49 | 451726 | ||
| 46047_TS_DEWT_052022.nc | 26-Oct-2024 23:49 | 446310 | ||
| 46047_TS_DEWT_052023.nc | 26-Oct-2024 23:49 | 449284 | ||
| 46047_TS_DEWT_052025.nc | 18-Jan-2026 04:57 | 451391 | ||
| 46047_TS_DEWT_061993.nc | 26-Oct-2024 23:49 | 451036 | ||
| 46047_TS_DEWT_061999.nc | 26-Oct-2024 23:49 | 450908 | ||
| 46047_TS_DEWT_062000.nc | 26-Oct-2024 23:49 | 450289 | ||
| 46047_TS_DEWT_062001.nc | 26-Oct-2024 23:49 | 448147 | ||
| 46047_TS_DEWT_062002.nc | 26-Oct-2024 23:49 | 448804 | ||
| 46047_TS_DEWT_062003.nc | 26-Oct-2024 23:50 | 448441 | ||
| 46047_TS_DEWT_062004.nc | 26-Oct-2024 23:50 | 449214 | ||
| 46047_TS_DEWT_062005.nc | 26-Oct-2024 23:50 | 449735 | ||
| 46047_TS_DEWT_062006.nc | 26-Oct-2024 23:50 | 448707 | ||
| 46047_TS_DEWT_062007.nc | 26-Oct-2024 23:50 | 449939 | ||
| 46047_TS_DEWT_062008.nc | 26-Oct-2024 23:50 | 450088 | ||
| 46047_TS_DEWT_062009.nc | 26-Oct-2024 23:50 | 449641 | ||
| 46047_TS_DEWT_062010.nc | 26-Oct-2024 23:50 | 445862 | ||
| 46047_TS_DEWT_062011.nc | 26-Oct-2024 23:50 | 450063 | ||
| 46047_TS_DEWT_062012.nc | 26-Oct-2024 23:50 | 422157 | ||
| 46047_TS_DEWT_062014.nc | 26-Oct-2024 23:50 | 436580 | ||
| 46047_TS_DEWT_062015.nc | 26-Oct-2024 23:50 | 449166 | ||
| 46047_TS_DEWT_062016.nc | 26-Oct-2024 23:50 | 450127 | ||
| 46047_TS_DEWT_062017.nc | 26-Oct-2024 23:50 | 442676 | ||
| 46047_TS_DEWT_062018.nc | 26-Oct-2024 23:50 | 450943 | ||
| 46047_TS_DEWT_062019.nc | 26-Oct-2024 23:50 | 450410 | ||
| 46047_TS_DEWT_062020.nc | 26-Oct-2024 23:51 | 449893 | ||
| 46047_TS_DEWT_062021.nc | 26-Oct-2024 23:51 | 449867 | ||
| 46047_TS_DEWT_062022.nc | 26-Oct-2024 23:51 | 450276 | ||
| 46047_TS_DEWT_062023.nc | 26-Oct-2024 23:51 | 450826 | ||
| 46047_TS_DEWT_062025.nc | 18-Jan-2026 04:58 | 449656 | ||
| 46047_TS_DEWT_071993.nc | 26-Oct-2024 23:51 | 449487 | ||
| 46047_TS_DEWT_071999.nc | 26-Oct-2024 23:51 | 449711 | ||
| 46047_TS_DEWT_072000.nc | 26-Oct-2024 23:51 | 449279 | ||
| 46047_TS_DEWT_072001.nc | 26-Oct-2024 23:51 | 450305 | ||
| 46047_TS_DEWT_072002.nc | 26-Oct-2024 23:51 | 450642 | ||
| 46047_TS_DEWT_072003.nc | 26-Oct-2024 23:51 | 450357 | ||
| 46047_TS_DEWT_072004.nc | 26-Oct-2024 23:51 | 450706 | ||
| 46047_TS_DEWT_072005.nc | 26-Oct-2024 23:51 | 449400 | ||
| 46047_TS_DEWT_072006.nc | 26-Oct-2024 23:51 | 450523 | ||
| 46047_TS_DEWT_072007.nc | 26-Oct-2024 23:51 | 450205 | ||
| 46047_TS_DEWT_072008.nc | 26-Oct-2024 23:51 | 450898 | ||
| 46047_TS_DEWT_072009.nc | 26-Oct-2024 23:51 | 449804 | ||
| 46047_TS_DEWT_072010.nc | 26-Oct-2024 23:51 | 450373 | ||
| 46047_TS_DEWT_072011.nc | 26-Oct-2024 23:51 | 449392 | ||
| 46047_TS_DEWT_072012.nc | 26-Oct-2024 23:52 | 448772 | ||
| 46047_TS_DEWT_072014.nc | 26-Oct-2024 23:52 | 448479 | ||
| 46047_TS_DEWT_072015.nc | 26-Oct-2024 23:52 | 450771 | ||
| 46047_TS_DEWT_072016.nc | 26-Oct-2024 23:52 | 450559 | ||
| 46047_TS_DEWT_072017.nc | 26-Oct-2024 23:52 | 447247 | ||
| 46047_TS_DEWT_072018.nc | 26-Oct-2024 23:52 | 448824 | ||
| 46047_TS_DEWT_072019.nc | 26-Oct-2024 23:52 | 443502 | ||
| 46047_TS_DEWT_072020.nc | 26-Oct-2024 23:52 | 449542 | ||
| 46047_TS_DEWT_072021.nc | 26-Oct-2024 23:52 | 449819 | ||
| 46047_TS_DEWT_072022.nc | 26-Oct-2024 23:52 | 449708 | ||
| 46047_TS_DEWT_072023.nc | 26-Oct-2024 23:52 | 448965 | ||
| 46047_TS_DEWT_072025.nc | 18-Jan-2026 04:59 | 988220 | ||
| 46047_TS_DEWT_081992.nc | 26-Oct-2024 23:52 | 445894 | ||
| 46047_TS_DEWT_081993.nc | 26-Oct-2024 23:52 | 450918 | ||
| 46047_TS_DEWT_081999.nc | 26-Oct-2024 23:52 | 450906 | ||
| 46047_TS_DEWT_082000.nc | 26-Oct-2024 23:52 | 450095 | ||
| 46047_TS_DEWT_082001.nc | 26-Oct-2024 23:52 | 450609 | ||
| 46047_TS_DEWT_082002.nc | 26-Oct-2024 23:52 | 450352 | ||
| 46047_TS_DEWT_082003.nc | 26-Oct-2024 23:52 | 450244 | ||
| 46047_TS_DEWT_082004.nc | 26-Oct-2024 23:52 | 429308 | ||
| 46047_TS_DEWT_082005.nc | 26-Oct-2024 23:52 | 451010 | ||
| 46047_TS_DEWT_082006.nc | 26-Oct-2024 23:52 | 450095 | ||
| 46047_TS_DEWT_082007.nc | 26-Oct-2024 23:53 | 451360 | ||
| 46047_TS_DEWT_082008.nc | 26-Oct-2024 23:53 | 450009 | ||
| 46047_TS_DEWT_082009.nc | 26-Oct-2024 23:53 | 1241475 | ||
| 46047_TS_DEWT_082010.nc | 26-Oct-2024 23:53 | 450197 | ||
| 46047_TS_DEWT_082011.nc | 26-Oct-2024 23:53 | 450050 | ||
| 46047_TS_DEWT_082012.nc | 26-Oct-2024 23:53 | 449132 | ||
| 46047_TS_DEWT_082014.nc | 26-Oct-2024 23:53 | 449611 | ||
| 46047_TS_DEWT_082015.nc | 26-Oct-2024 23:53 | 450184 | ||
| 46047_TS_DEWT_082016.nc | 26-Oct-2024 23:53 | 448941 | ||
| 46047_TS_DEWT_082017.nc | 26-Oct-2024 23:53 | 440203 | ||
| 46047_TS_DEWT_082018.nc | 26-Oct-2024 23:53 | 449186 | ||
| 46047_TS_DEWT_082019.nc | 26-Oct-2024 23:53 | 449898 | ||
| 46047_TS_DEWT_082020.nc | 26-Oct-2024 23:53 | 450448 | ||
| 46047_TS_DEWT_082021.nc | 26-Oct-2024 23:53 | 449725 | ||
| 46047_TS_DEWT_082022.nc | 26-Oct-2024 23:53 | 450525 | ||
| 46047_TS_DEWT_082023.nc | 26-Oct-2024 23:53 | 449646 | ||
| 46047_TS_DEWT_082025.nc | 18-Jan-2026 04:59 | 450672 | ||
| 46047_TS_DEWT_091992.nc | 26-Oct-2024 23:53 | 1111711 | ||
| 46047_TS_DEWT_091999.nc | 26-Oct-2024 23:53 | 424205 | ||
| 46047_TS_DEWT_092000.nc | 26-Oct-2024 23:53 | 451507 | ||
| 46047_TS_DEWT_092001.nc | 26-Oct-2024 23:53 | 451050 | ||
| 46047_TS_DEWT_092002.nc | 26-Oct-2024 23:54 | 446354 | ||
| 46047_TS_DEWT_092003.nc | 26-Oct-2024 23:54 | 450570 | ||
| 46047_TS_DEWT_092004.nc | 26-Oct-2024 23:54 | 450341 | ||
| 46047_TS_DEWT_092005.nc | 26-Oct-2024 23:54 | 450231 | ||
| 46047_TS_DEWT_092006.nc | 26-Oct-2024 23:54 | 451493 | ||
| 46047_TS_DEWT_092007.nc | 26-Oct-2024 23:54 | 451036 | ||
| 46047_TS_DEWT_092008.nc | 26-Oct-2024 23:54 | 451954 | ||
| 46047_TS_DEWT_092009.nc | 26-Oct-2024 23:54 | 449966 | ||
| 46047_TS_DEWT_092010.nc | 26-Oct-2024 23:54 | 430881 | ||
| 46047_TS_DEWT_092011.nc | 26-Oct-2024 23:54 | 450979 | ||
| 46047_TS_DEWT_092012.nc | 26-Oct-2024 23:54 | 451260 | ||
| 46047_TS_DEWT_092014.nc | 26-Oct-2024 23:54 | 1266064 | ||
| 46047_TS_DEWT_092015.nc | 26-Oct-2024 23:54 | 429924 | ||
| 46047_TS_DEWT_092016.nc | 26-Oct-2024 23:54 | 429788 | ||
| 46047_TS_DEWT_092017.nc | 26-Oct-2024 23:54 | 429060 | ||
| 46047_TS_DEWT_092018.nc | 26-Oct-2024 23:54 | 429911 | ||
| 46047_TS_DEWT_092019.nc | 26-Oct-2024 23:54 | 429724 | ||
| 46047_TS_DEWT_092020.nc | 26-Oct-2024 23:54 | 429916 | ||
| 46047_TS_DEWT_092021.nc | 26-Oct-2024 23:54 | 429721 | ||
| 46047_TS_DEWT_092022.nc | 26-Oct-2024 23:54 | 429817 | ||
| 46047_TS_DEWT_092023.nc | 26-Oct-2024 23:54 | 429919 | ||
| 46047_TS_DEWT_092025.nc | 18-Jan-2026 05:00 | 429910 | ||
| 46047_TS_DEWT_101992.nc | 26-Oct-2024 23:54 | 429917 | ||
| 46047_TS_DEWT_101999.nc | 26-Oct-2024 23:54 | 429914 | ||
| 46047_TS_DEWT_102000.nc | 26-Oct-2024 23:54 | 429911 | ||
| 46047_TS_DEWT_102001.nc | 26-Oct-2024 23:54 | 429698 | ||
| 46047_TS_DEWT_102002.nc | 26-Oct-2024 23:54 | 429913 | ||
| 46047_TS_DEWT_102003.nc | 26-Oct-2024 23:55 | 429748 | ||
| 46047_TS_DEWT_102004.nc | 26-Oct-2024 23:55 | 429352 | ||
| 46047_TS_DEWT_102005.nc | 26-Oct-2024 23:55 | 429000 | ||
| 46047_TS_DEWT_102006.nc | 26-Oct-2024 23:55 | 429001 | ||
| 46047_TS_DEWT_102007.nc | 26-Oct-2024 23:55 | 428887 | ||
| 46047_TS_DEWT_102008.nc | 26-Oct-2024 23:55 | 428888 | ||
| 46047_TS_DEWT_102009.nc | 26-Oct-2024 23:55 | 428884 | ||
| 46047_TS_DEWT_102010.nc | 26-Oct-2024 23:55 | 429244 | ||
| 46047_TS_DEWT_102011.nc | 26-Oct-2024 23:55 | 428887 | ||
| 46047_TS_DEWT_102014.nc | 26-Oct-2024 23:55 | 429232 | ||
| 46047_TS_DEWT_102015.nc | 26-Oct-2024 23:55 | 428867 | ||
| 46047_TS_DEWT_102016.nc | 26-Oct-2024 23:55 | 428884 | ||
| 46047_TS_DEWT_102017.nc | 26-Oct-2024 23:55 | 428884 | ||
| 46047_TS_DEWT_102018.nc | 26-Oct-2024 23:55 | 429233 | ||
| 46047_TS_DEWT_102019.nc | 26-Oct-2024 23:55 | 428882 | ||
| 46047_TS_DEWT_102020.nc | 26-Oct-2024 23:55 | 428887 | ||
| 46047_TS_DEWT_102021.nc | 26-Oct-2024 23:55 | 428684 | ||
| 46047_TS_DEWT_102022.nc | 26-Oct-2024 23:55 | 429232 | ||
| 46047_TS_DEWT_102023.nc | 26-Oct-2024 23:55 | 428888 | ||
| 46047_TS_DEWT_102024.nc | 12-Jan-2025 20:16 | 428652 | ||
| 46047_TS_DEWT_102025.nc | 18-Jan-2026 05:00 | 428887 | ||
| 46047_TS_DEWT_111992.nc | 26-Oct-2024 23:55 | 429739 | ||
| 46047_TS_DEWT_111999.nc | 26-Oct-2024 23:55 | 429811 | ||
| 46047_TS_DEWT_112000.nc | 26-Oct-2024 23:55 | 429862 | ||
| 46047_TS_DEWT_112001.nc | 26-Oct-2024 23:56 | 429750 | ||
| 46047_TS_DEWT_112002.nc | 26-Oct-2024 23:56 | 429915 | ||
| 46047_TS_DEWT_112003.nc | 26-Oct-2024 23:56 | 429913 | ||
| 46047_TS_DEWT_112004.nc | 26-Oct-2024 23:56 | 429917 | ||
| 46047_TS_DEWT_112005.nc | 26-Oct-2024 23:56 | 429707 | ||
| 46047_TS_DEWT_112006.nc | 26-Oct-2024 23:56 | 429915 | ||
| 46047_TS_DEWT_112007.nc | 26-Oct-2024 23:56 | 429918 | ||
| 46047_TS_DEWT_112008.nc | 26-Oct-2024 23:56 | 429916 | ||
| 46047_TS_DEWT_112009.nc | 26-Oct-2024 23:56 | 429915 | ||
| 46047_TS_DEWT_112011.nc | 26-Oct-2024 23:56 | 429919 | ||
| 46047_TS_DEWT_112012.nc | 26-Oct-2024 23:56 | 429776 | ||
| 46047_TS_DEWT_112014.nc | 26-Oct-2024 23:56 | 429918 | ||
| 46047_TS_DEWT_112015.nc | 26-Oct-2024 23:56 | 422416 | ||
| 46047_TS_DEWT_112016.nc | 26-Oct-2024 23:56 | 429892 | ||
| 46047_TS_DEWT_112017.nc | 26-Oct-2024 23:56 | 429902 | ||
| 46047_TS_DEWT_112018.nc | 26-Oct-2024 23:56 | 429571 | ||
| 46047_TS_DEWT_112019.nc | 26-Oct-2024 23:56 | 429126 | ||
| 46047_TS_DEWT_112020.nc | 26-Oct-2024 23:56 | 429445 | ||
| 46047_TS_DEWT_112021.nc | 26-Oct-2024 23:56 | 429528 | ||
| 46047_TS_DEWT_112022.nc | 26-Oct-2024 23:56 | 429381 | ||
| 46047_TS_DEWT_112023.nc | 26-Oct-2024 23:57 | 429575 | ||
| 46047_TS_DEWT_112024.nc | 17-Jan-2025 13:54 | 429455 | ||
| 46047_TS_DEWT_112025.nc | 18-Jan-2026 05:01 | 429544 | ||
| 46047_TS_DEWT_121991.nc | 26-Oct-2024 23:57 | 429559 | ||
| 46047_TS_DEWT_121992.nc | 26-Oct-2024 23:57 | 429550 | ||
| 46047_TS_DEWT_121999.nc | 26-Oct-2024 23:57 | 429570 | ||
| 46047_TS_DEWT_122000.nc | 26-Oct-2024 23:57 | 429575 | ||
| 46047_TS_DEWT_122001.nc | 26-Oct-2024 23:57 | 429570 | ||
| 46047_TS_DEWT_122002.nc | 26-Oct-2024 23:57 | 429573 | ||
| 46047_TS_DEWT_122003.nc | 26-Oct-2024 23:57 | 429470 | ||
| 46047_TS_DEWT_122004.nc | 26-Oct-2024 23:57 | 429552 | ||
| 46047_TS_DEWT_122005.nc | 26-Oct-2024 23:57 | 429575 | ||
| 46047_TS_DEWT_122006.nc | 26-Oct-2024 23:57 | 429550 | ||
| 46047_TS_DEWT_122007.nc | 26-Oct-2024 23:57 | 427488 | ||
| 46047_TS_DEWT_122008.nc | 26-Oct-2024 23:57 | 428379 | ||
| 46047_TS_DEWT_122009.nc | 26-Oct-2024 23:57 | 429914 | ||
| 46047_TS_DEWT_122011.nc | 26-Oct-2024 23:57 | 429841 | ||
| 46047_TS_DEWT_122012.nc | 26-Oct-2024 23:57 | 429912 | ||
| 46047_TS_DEWT_122014.nc | 26-Oct-2024 23:57 | 429913 | ||
| 46047_TS_DEWT_122015.nc | 26-Oct-2024 23:57 | 429918 | ||
| 46047_TS_DEWT_122016.nc | 26-Oct-2024 23:57 | 429914 | ||
| 46047_TS_DEWT_122017.nc | 26-Oct-2024 23:57 | 429915 | ||
| 46047_TS_DEWT_122018.nc | 26-Oct-2024 23:57 | 429749 | ||
| 46047_TS_DEWT_122019.nc | 26-Oct-2024 23:57 | 429915 | ||
| 46047_TS_DEWT_122020.nc | 26-Oct-2024 23:58 | 429918 | ||
| 46047_TS_DEWT_122021.nc | 26-Oct-2024 23:58 | 429863 | ||
| 46047_TS_DEWT_122022.nc | 26-Oct-2024 23:58 | 429001 | ||
| 46047_TS_DEWT_122023.nc | 26-Oct-2024 23:58 | 429919 | ||
| 46047_TS_DEWT_122024.nc | 22-Jan-2025 15:59 | 429910 | ||
| 46047_TS_DEWT_122025.nc | 18-Jan-2026 05:02 | 429917 | ||